• en Belgique
  • Liste des pays
  • À 7 jours
  • Température de l'eau
  • Carte satellitaire
  • Carte météo
  • Widgets météo
  • user-avatar
    Se connecter

    Météo par heure à Wavre

    Ce jour, 23 Mai, Mercredi

    Heure Température Précipitation Vent Pression Humidité
    00:00 +15°C° 0 mm 1 m/s 756 mmHg 91%
    01:00 +15°C° 0,1 mm 1 m/s 756 mmHg 92%
    02:00 +15°C° 0,1 mm 1 m/s 756 mmHg 93%
    03:00 +14°C° 0,1 mm 1 m/s 756 mmHg 94%
    04:00 +15°C° 0,1 mm 1 m/s 756 mmHg 93%
    05:00 +16°C° 0,1 mm 2 m/s 757 mmHg 92%
    06:00 +16°C° 0 mm 2 m/s 757 mmHg 91%
    07:00 +17°C° 0,2 mm 2 m/s 757 mmHg 87%
    08:00 +19°C° 0,2 mm 3 m/s 758 mmHg 82%
    09:00 +20°C° 0,2 mm 3 m/s 758 mmHg 78%
    10:00 +21°C° 1,1 mm 3 m/s 758 mmHg 75%
    11:00 +22°C° 1,1 mm 4 m/s 758 mmHg 72%
    12:00 +23°C° 1,1 mm 4 m/s 758 mmHg 69%
    13:00 +23°C° 0,9 mm 4 m/s 757 mmHg 70%
    14:00 +23°C° 0,9 mm 4 m/s 757 mmHg 70%
    15:00 +23°C° 0,9 mm 4 m/s 757 mmHg 71%
    16:00 +22°C° 0,7 mm 4 m/s 757 mmHg 74%
    17:00 +21°C° 0,7 mm 3 m/s 757 mmHg 77%
    18:00 +21°C° 0,7 mm 3 m/s 757 mmHg 80%
    19:00 +20°C° 0,4 mm 3 m/s 757 mmHg 82%
    20:00 +19°C° 0,4 mm 3 m/s 758 mmHg 84%
    21:00 +18°C° 0,4 mm 3 m/s 758 mmHg 86%
    22:00 +17°C° 0,2 mm 3 m/s 758 mmHg 87%
    23:00 +17°C° 0,2 mm 3 m/s 758 mmHg 88%

    Demain, 24 Mai, Jeudi

    Heure Température Précipitation Vent Pression Humidité
    00:00 +16°C° 0,2 mm 3 m/s 758 mmHg 88%
    01:00 +16°C° 0 mm 3 m/s 758 mmHg 88%
    02:00 +16°C° 0 mm 3 m/s 758 mmHg 88%
    03:00 +14°C° 0 mm 3 m/s 758 mmHg 88%
    04:00 +16°C° 0 mm 3 m/s 758 mmHg 86%
    05:00 +16°C° 0 mm 3 m/s 758 mmHg 85%
    06:00 +17°C° 0 mm 3 m/s 758 mmHg 84%
    07:00 +18°C° 0 mm 3 m/s 758 mmHg 80%
    08:00 +19°C° 0 mm 3 m/s 758 mmHg 77%
    09:00 +21°C° 0 mm 3 m/s 758 mmHg 74%
    10:00 +21°C° 0,2 mm 3 m/s 757 mmHg 74%
    11:00 +22°C° 0,2 mm 3 m/s 757 mmHg 74%
    12:00 +22°C° 0,2 mm 3 m/s 757 mmHg 74%
    13:00 +22°C° 1,3 mm 3 m/s 757 mmHg 74%
    14:00 +22°C° 1,3 mm 3 m/s 756 mmHg 75%
    15:00 +23°C° 1,3 mm 2 m/s 756 mmHg 76%
    16:00 +23°C° 1 mm 2 m/s 756 mmHg 79%
    17:00 +22°C° 1 mm 1 m/s 756 mmHg 83%
    18:00 +21°C° 1 mm 1 m/s 756 mmHg 87%
    19:00 +20°C° 0 mm 1 m/s 756 mmHg 88%
    20:00 +19°C° 0 mm 1 m/s 756 mmHg 90%
    21:00 +18°C° 0 mm 1 m/s 757 mmHg 91%
    22:00 +18°C° 0 mm 1 m/s 757 mmHg 92%
    23:00 +16°C° 0 mm 1 m/s 757 mmHg 92%

    Après-demain, 25 Mai, Vendredi

    Heure Température Précipitation Vent Pression Humidité
    00:00 +16°C° 0 mm 1 m/s 757 mmHg 93%
    01:00 +16°C° 0 mm 1 m/s 757 mmHg 93%
    02:00 +16°C° 0 mm 1 m/s 757 mmHg 93%
    03:00 +15°C° 0 mm 1 m/s 757 mmHg 94%
    04:00 +16°C° 0 mm 1 m/s 757 mmHg 92%
    05:00 +18°C° 0 mm 1 m/s 757 mmHg 90%
    06:00 +19°C° 0 mm 1 m/s 757 mmHg 89%
    07:00 +21°C° 0 mm 1 m/s 757 mmHg 83%
    08:00 +22°C° 0 mm 1 m/s 757 mmHg 76%
    09:00 +24°C° 0 mm 1 m/s 758 mmHg 70%
    10:00 +25°C° 0 mm 1 m/s 757 mmHg 66%
    11:00 +26°C° 0 mm 1 m/s 757 mmHg 61%
    12:00 +27°C° 0 mm 1 m/s 757 mmHg 56%
    13:00 +27°C° 0,1 mm 1 m/s 757 mmHg 55%
    14:00 +28°C° 0,1 mm 1 m/s 757 mmHg 54%
    15:00 +28°C° 0,1 mm 1 m/s 757 mmHg 54%
    16:00 +27°C° 0,1 mm 1 m/s 757 mmHg 59%
    17:00 +26°C° 0,1 mm 1 m/s 757 mmHg 64%
    18:00 +26°C° 0,1 mm 2 m/s 757 mmHg 69%
    19:00 +24°C° 0 mm 2 m/s 757 mmHg 74%
    20:00 +21°C° 0 mm 2 m/s 758 mmHg 79%
    21:00 +19°C° 0 mm 2 m/s 758 mmHg 84%
    22:00 +19°C° 0 mm 2 m/s 758 mmHg 86%
    23:00 +20°C° 0 mm 1 m/s 758 mmHg 87%

    26 Mai, Samedi

    Heure Température Précipitation Vent Pression Humidité
    00:00 +19°C° 0 mm 1 m/s 758 mmHg 89%
    01:00 +19°C° 0 mm 1 m/s 758 mmHg 89%
    02:00 +18°C° 0 mm 1 m/s 758 mmHg 90%
    03:00 +18°C° 0 mm 1 m/s 758 mmHg 90%
    04:00 +18°C° 0 mm 2 m/s 758 mmHg 88%
    05:00 +19°C° 0 mm 2 m/s 758 mmHg 86%
    06:00 +20°C° 0 mm 2 m/s 758 mmHg 83%
    07:00 +23°C° 0 mm 2 m/s 758 mmHg 78%
    08:00 +24°C° 0 mm 3 m/s 759 mmHg 73%
    09:00 +26°C° 0 mm 3 m/s 759 mmHg 67%
    10:00 +27°C° 0 mm 3 m/s 759 mmHg 64%
    11:00 +28°C° 0 mm 3 m/s 759 mmHg 60%
    12:00 +29°C° 0 mm 3 m/s 759 mmHg 57%
    13:00 +29°C° 0 mm 4 m/s 758 mmHg 56%
    14:00 +30°C° 0 mm 4 m/s 758 mmHg 56%
    15:00 +30°C° 0 mm 4 m/s 758 mmHg 56%
    16:00 +29°C° 0 mm 4 m/s 758 mmHg 60%
    17:00 +28°C° 0 mm 3 m/s 758 mmHg 64%
    18:00 +27°C° 0 mm 3 m/s 758 mmHg 69%
    19:00 +26°C° 0 mm 3 m/s 759 mmHg 70%
    20:00 +23°C° 0 mm 4 m/s 759 mmHg 71%
    21:00 +22°C° 0 mm 4 m/s 759 mmHg 73%
    22:00 +21°C° 0 mm 3 m/s 759 mmHg 74%
    23:00 +20°C° 0 mm 3 m/s 759 mmHg 75%

    27 Mai, Dimanche

    Heure Température Précipitation Vent Pression Humidité
    00:00 +20°C° 0 mm 3 m/s 759 mmHg 75%
    01:00 +19°C° 0 mm 3 m/s 759 mmHg 76%
    02:00 +19°C° 0 mm 3 m/s 759 mmHg 77%
    03:00 +18°C° 0 mm 3 m/s 759 mmHg 78%
    04:00 +19°C° 0 mm 4 m/s 759 mmHg 78%
    05:00 +19°C° 0 mm 4 m/s 759 mmHg 77%
    06:00 +20°C° 0 mm 4 m/s 759 mmHg 77%
    07:00 +22°C° 0 mm 4 m/s 759 mmHg 72%
    08:00 +23°C° 0 mm 5 m/s 759 mmHg 67%
    09:00 +26°C° 0 mm 5 m/s 759 mmHg 62%
    10:00 +27°C° 0 mm 4 m/s 759 mmHg 59%
    11:00 +28°C° 0 mm 4 m/s 759 mmHg 56%
    12:00 +29°C° 0 mm 4 m/s 758 mmHg 54%
    13:00 +29°C° 0 mm 4 m/s 758 mmHg 54%
    14:00 +29°C° 0 mm 4 m/s 758 mmHg 54%
    15:00 +29°C° 0 mm 4 m/s 757 mmHg 55%
    16:00 +28°C° 0 mm 4 m/s 757 mmHg 59%
    17:00 +27°C° 0 mm 4 m/s 757 mmHg 63%
    18:00 +26°C° 0 mm 4 m/s 757 mmHg 67%
    19:00 +25°C° 0 mm 4 m/s 757 mmHg 69%
    20:00 +22°C° 0 mm 4 m/s 758 mmHg 70%
    21:00 +21°C° 0 mm 4 m/s 758 mmHg 72%
    22:00 +20°C° 0 mm 3 m/s 758 mmHg 75%
    23:00 +20°C° 0 mm 3 m/s 758 mmHg 77%

    28 Mai, Lundi

    Heure Température Précipitation Vent Pression Humidité
    00:00 +19°C° 0 mm 3 m/s 758 mmHg 80%
    01:00 +19°C° 0 mm 3 m/s 757 mmHg 82%
    02:00 +18°C° 0 mm 3 m/s 757 mmHg 84%
    03:00 +17°C° 0 mm 3 m/s 757 mmHg 87%
    04:00 +18°C° 0 mm 3 m/s 757 mmHg 86%
    05:00 +19°C° 0 mm 3 m/s 757 mmHg 84%
    06:00 +20°C° 0 mm 4 m/s 757 mmHg 83%
    07:00 +21°C° 0 mm 4 m/s 757 mmHg 78%
    08:00 +23°C° 0 mm 4 m/s 757 mmHg 73%
    09:00 +25°C° 0 mm 4 m/s 757 mmHg 68%
    10:00 +26°C° 0 mm 4 m/s 756 mmHg 64%
    11:00 +27°C° 0 mm 4 m/s 756 mmHg 60%
    12:00 +28°C° 0 mm 4 m/s 756 mmHg 56%
    13:00 +29°C° 0 mm 3 m/s 755 mmHg 55%
    14:00 +29°C° 0 mm 3 m/s 755 mmHg 54%
    15:00 +29°C° 0 mm 3 m/s 755 mmHg 53%
    16:00 +28°C° 0 mm 3 m/s 754 mmHg 58%
    17:00 +27°C° 0 mm 3 m/s 754 mmHg 64%
    18:00 +27°C° 0 mm 3 m/s 754 mmHg 69%
    19:00 +25°C° 0 mm 3 m/s 754 mmHg 72%
    20:00 +24°C° 0 mm 3 m/s 754 mmHg 75%
    21:00 +22°C° 0 mm 3 m/s 754 mmHg 78%
    22:00 +21°C° 0,2 mm 3 m/s 754 mmHg 81%
    23:00 +20°C° 0,2 mm 2 m/s 754 mmHg 84%
    Voir plus